Weather History for Hereford, TX

Change the Weather History Date:

Sunday, April 1, 2012

  Actual Average (KAMA) Record (KAMA)
Temperature  
Mean Temperature 66 °F 52 °F  
Max Temperature 87 °F 67 °F 92 °F (1946)
Min Temperature 44 °F 37 °F 20 °F (1948)
Degree Days  
Heating Degree Days 0 13  
Month to date heating degree days 13  
Since 1 July heating degree days 3822  
Cooling Degree Days 0 0  
Month to date cooling degree days 0  
Year to date cooling degree days 2  
Growing Degree Days 16 (Base 50)    
Moisture  
Dew Point 20 °F    
Average Humidity 19    
Maximum Humidity 46    
Minimum Humidity 7    
Precipitation  
Precipitation 0.00 in 0.05 in 1.09 in (1905)
Month to date precipitation 0.05  
Year to date precipitation 2.72  
Snow  
Snow 0.00 in 0.10 in 4.20 in (1988)
Month to date snowfall 0.1  
Since 1 July snowfall 17.0  
Snow Depth -    
Sea Level Pressure  
Sea Level Pressure 29.68 in    
Wind  
Wind Speed 11 mph (WSW)    
Max Wind Speed 26 mph    
Max Gust Speed 37 mph    
Visibility 10 miles    
Events      
T = Trace of Precipitation, MM = Missing Value Source: NWS Daily Summary

Daily Weather History Graph

Daily Weather History Graph

Search for Another Location

Airport:

Trip Planner

Search our weather history database for the weather conditions in past years. The results will help you decide how hot, cold, wet, or windy it might be!

Date:

Astronomy

Apr. 01, 2012 Rise Set
Actual Time 7:35 AM CDT 8:10 PM CDT
Civil Twilight 7:10 AM CDT 8:36 PM CDT
Nautical Twilight 6:40 AM CDT 9:06 PM CDT
Astronomical Twilight 6:09 AM CDT 9:37 PM CDT
Moon 2:55 PM CDT (4/1) 4:00 AM CDT (4/1)
Length of Visible Light 13h 26m
Length of Day
12h 35m
Waxing Gibbous, 69% of the Moon is Illuminated
Apr 1
Waxing Gibbous
Apr 6
Full
Apr 13
Last Quarter
Apr 21
New
Apr 29
First Quarter

Hourly Weather History & Observations

Time (CDT) Temp. Windchill Dew Point Humidity Pressure Visibility Wind Dir Wind Speed Gust Speed Precip Events Conditions
12:15 AM 55.4 °F - 26.6 °F 33% 29.80 in 10.0 mi WSW 8.1 mph - N/A   Clear
12:35 AM 53.6 °F - 26.6 °F 35% 29.80 in 10.0 mi West 8.1 mph - N/A   Clear
12:55 AM 53.6 °F - 26.6 °F 35% 29.80 in 10.0 mi WSW 5.8 mph - N/A   Clear
1:15 AM 53.6 °F - 26.6 °F 35% 29.79 in 10.0 mi WSW 5.8 mph - N/A   Clear
1:35 AM 53.6 °F - 24.8 °F 33% 29.79 in 10.0 mi WSW 5.8 mph - N/A   Clear
2:15 AM 51.8 °F - 23.0 °F 33% 29.77 in 10.0 mi SW 3.5 mph - N/A   Clear
2:35 AM 51.8 °F - 24.8 °F 35% 29.77 in 10.0 mi Calm Calm - N/A   Clear
3:15 AM 53.6 °F - 24.8 °F 33% 29.75 in 10.0 mi SW 4.6 mph - N/A   Clear
3:35 AM 53.6 °F - 24.8 °F 33% 29.75 in 10.0 mi SW 9.2 mph - N/A   Clear
3:55 AM 50.0 °F - 26.6 °F 40% 29.74 in 10.0 mi WSW 6.9 mph - N/A   Clear
4:15 AM 53.6 °F - 23.0 °F 30% 29.74 in 10.0 mi SW 9.2 mph - N/A   Clear
4:35 AM 50.0 °F - 24.8 °F 37% 29.73 in 10.0 mi WSW 9.2 mph - N/A   Clear
4:55 AM 50.0 °F - 24.8 °F 37% 29.73 in 10.0 mi West 3.5 mph - N/A   Clear
5:35 AM 46.4 °F 45.2 °F 23.0 °F 40% 29.74 in 10.0 mi WNW 3.5 mph - N/A   Clear
5:55 AM 44.6 °F 43.1 °F 24.8 °F 46% 29.73 in 10.0 mi SW 3.5 mph - N/A   Clear
6:15 AM 50.0 °F - 23.0 °F 35% 29.73 in 10.0 mi WSW 5.8 mph - N/A   Clear
6:55 AM 46.4 °F 41.5 °F 23.0 °F 40% 29.73 in 10.0 mi West 10.4 mph - N/A   Clear
7:15 AM 46.4 °F 42.9 °F 21.2 °F 37% 29.73 in 10.0 mi WSW 6.9 mph - N/A   Clear
7:35 AM 51.8 °F - 21.2 °F 30% 29.73 in 10.0 mi SW 9.2 mph - N/A   Clear
8:35 AM 59.0 °F - 23.0 °F 25% 29.73 in 10.0 mi WSW 8.1 mph - N/A   Clear
8:55 AM 60.8 °F - 21.2 °F 22% 29.73 in 10.0 mi West 12.7 mph - N/A   Clear
9:15 AM 62.6 °F - 23.0 °F 22% 29.73 in 10.0 mi West 15.0 mph 18.4 mph N/A   Clear
9:35 AM 64.4 °F - 23.0 °F 21% 29.73 in 10.0 mi West 13.8 mph 18.4 mph N/A   Clear
9:55 AM 68.0 °F - 24.8 °F 20% 29.72 in 10.0 mi WSW 10.4 mph - N/A   Clear
10:15 AM 71.6 °F - 24.8 °F 17% 29.72 in 10.0 mi West 11.5 mph - N/A   Clear
10:35 AM 75.2 °F - 24.8 °F 15% 29.72 in 10.0 mi WSW 12.7 mph - N/A   Clear
10:55 AM 78.8 °F - 24.8 °F 14% 29.71 in 10.0 mi WSW 12.7 mph - N/A   Clear
11:15 AM 80.6 °F - 23.0 °F 12% 29.72 in 10.0 mi West 12.7 mph - N/A   Clear
11:35 AM 82.4 °F - 17.6 °F 9% 29.72 in 10.0 mi West 20.7 mph 25.3 mph N/A   Clear
11:55 AM 84.2 °F - 17.6 °F 8% 29.72 in 10.0 mi West 18.4 mph 24.2 mph N/A   Clear
12:15 PM 86.0 °F - 17.6 °F 8% 29.71 in 10.0 mi WSW 20.7 mph 26.5 mph N/A   Clear
12:35 PM 86.0 °F - 17.6 °F 8% 29.71 in 10.0 mi West 19.6 mph 31.1 mph N/A   Clear
1:15 PM 86.0 °F - 17.6 °F 8% 29.70 in 10.0 mi West 26.5 mph 31.1 mph N/A   Clear
1:35 PM 87.8 °F - 17.6 °F 8% 29.69 in 10.0 mi WSW 23.0 mph 31.1 mph N/A   Clear
1:55 PM 86.0 °F - 17.6 °F 8% 29.68 in 10.0 mi SW 16.1 mph 31.1 mph N/A   Clear
2:15 PM 87.8 °F - 17.6 °F 8% 29.67 in 10.0 mi SW 17.3 mph 29.9 mph N/A   Clear
2:35 PM 87.8 °F - 17.6 °F 8% 29.66 in 10.0 mi WSW 18.4 mph 32.2 mph N/A   Clear
2:55 PM 87.8 °F - 17.6 °F 8% 29.65 in 10.0 mi SW 25.3 mph 34.5 mph N/A   Clear
3:15 PM 87.8 °F - 17.6 °F 8% 29.64 in 10.0 mi SW 24.2 mph 32.2 mph N/A   Clear
3:35 PM 87.8 °F - 19.4 °F 8% 29.64 in 10.0 mi WSW 25.3 mph 36.8 mph N/A   Clear
3:55 PM 87.8 °F - 19.4 °F 8% 29.63 in 10.0 mi SW 21.9 mph 32.2 mph N/A   Clear
4:15 PM 87.8 °F - 17.6 °F 8% 29.62 in 10.0 mi WSW 20.7 mph 33.4 mph N/A   Clear
4:35 PM 86.0 °F - 17.6 °F 8% 29.61 in 10.0 mi SW 21.9 mph 31.1 mph N/A   Clear
4:55 PM 86.0 °F - 17.6 °F 8% 29.61 in 10.0 mi SW 24.2 mph 33.4 mph N/A   Clear
5:15 PM 86.0 °F - 17.6 °F 8% 29.60 in 10.0 mi SW 23.0 mph 32.2 mph N/A   Clear
5:35 PM 86.0 °F - 17.6 °F 8% 29.60 in 10.0 mi SW 24.2 mph 31.1 mph N/A   Clear
5:55 PM 86.0 °F - 15.8 °F 7% 29.59 in 10.0 mi WSW 19.6 mph 28.8 mph N/A   Clear
6:15 PM 86.0 °F - 14.0 °F 7% 29.58 in 10.0 mi SW 16.1 mph 32.2 mph N/A   Clear
6:35 PM 86.0 °F - 14.0 °F 7% 29.58 in 10.0 mi SW 19.6 mph 25.3 mph N/A   Clear
7:15 PM 84.2 °F - 12.2 °F 7% 29.58 in 10.0 mi SW 18.4 mph 24.2 mph N/A   Clear
7:35 PM 80.6 °F - 14.0 °F 8% 29.57 in 10.0 mi WSW 15.0 mph 19.6 mph N/A   Clear
7:55 PM 78.8 °F - 15.8 °F 9% 29.57 in 10.0 mi WSW 11.5 mph - N/A   Clear
8:15 PM 73.4 °F - 15.8 °F 11% 29.57 in 7.0 mi SW 9.2 mph - N/A   Clear
8:35 PM 69.8 °F - 17.6 °F 14% 29.57 in 10.0 mi SSW 9.2 mph - N/A   Clear
8:55 PM 68.0 °F - 17.6 °F 15% 29.57 in 7.0 mi SSW 6.9 mph - N/A   Clear
9:15 PM 64.4 °F - 15.8 °F 15% 29.57 in 10.0 mi SSW 9.2 mph - N/A   Clear
9:35 PM 64.4 °F - 15.8 °F 15% 29.58 in 10.0 mi SSW 8.1 mph - N/A   Clear
9:55 PM 64.4 °F - 15.8 °F 15% 29.58 in 10.0 mi SSW 9.2 mph - N/A   Clear
10:15 PM 66.2 °F - 14.0 °F 13% 29.57 in 10.0 mi South 12.7 mph - N/A   Clear
10:35 PM 64.4 °F - 14.0 °F 14% 29.57 in 10.0 mi SSW 15.0 mph - N/A   Clear
10:55 PM 66.2 °F - 10.4 °F 11% 29.57 in 10.0 mi SSW 17.3 mph 23.0 mph N/A   Clear
11:15 PM 66.2 °F - 10.4 °F 11% 29.57 in 10.0 mi SW 18.4 mph 24.2 mph N/A   Clear
11:35 PM 64.4 °F - 10.4 °F 12% 29.57 in 10.0 mi SW 15.0 mph - N/A   Clear
11:55 PM 62.6 °F - 10.4 °F 13% 29.57 in 10.0 mi SSW 12.7 mph - N/A   Clear